Flag for Canada Weather past 2 weeks in Kingston, Ontario, Canada

Now
43 °F

Partly sunny.


Feels Like: 36 °F
Forecast: N/A
Wind: 14 mph from Southwest

Location: Kingston

Current Time: Apr 25, 2015 at 5:45:47 PM

Latest Report: Apr 25, 2015 at 5:00 PM


Visibility: 15 mi

Pressure: 29.81 "Hg

Humidity: 71%

Dew point: 34 °F

Location of KingstonLocation

Historic Weather in Kingston — Graph

°F

Kingston temperature yesterday

Maximum temperature yesterday: 43 °F (at 4:00 PM)
Minimum temperature yesterday: 32 °F (at 6:00 AM)
Average temperature yesterday: 38 °F

Past Weeks' High & Low Weather Summary

 TemperatureHumidityPressure
High66 °F (Apr 18, 2:00 PM)100% (Apr 14, 6:00 AM)30.44 "Hg (Apr 14, 6:00 AM)
Low28 °F (Apr 25, 6:00 AM)24% (Apr 18, 4:00 PM)29.49 "Hg (Apr 20, 6:00 PM)
Average45 °F67%29.96 "Hg
* Reported Apr 10 4:00 PM — Apr 25 4:00 PM, Kingston, Weather by CustomWeather, © 2015

Note: Actual official high and low records may vary slightly from our data, if they occured in-between our weather recording intervals... More about our weather records

Advertising

Kingston weather history for previous 24 hours

 ConditionsComfort  
Time TempWeatherWind HumidityBarometerVisibility
4:00 PM
Sat, Apr 25
43 °FPartly sunny.16 mph71%29.82 "Hg15 mi
3:00 PM43 °FScattered clouds.16 mph71%29.84 "Hg15 mi
2:00 PM45 °FScattered clouds.17 mph61%29.87 "Hg15 mi
1:00 PM41 °FScattered clouds.18 mph70%29.90 "Hg15 mi
12:00 PM41 °FPassing clouds.16 mph61%29.92 "Hg15 mi
11:00 AM41 °FPassing clouds.13 mph61%29.92 "Hg15 mi
10:00 AM39 °FPassing clouds.3 mph61%29.92 "Hg15 mi
9:00 AM37 °FPassing clouds.9 mph56%29.93 "Hg15 mi
8:00 AM34 °FPassing clouds.5 mph70%29.96 "Hg15 mi
7:00 AM30 °FPassing clouds.8 mph75%29.96 "Hg15 mi
6:00 AM28 °FPassing clouds.6 mph80%29.96 "Hg15 mi
11:00 PM
Fri, Apr 24
37 °FPassing clouds.7 mph60%29.95 "Hg15 mi
10:00 PM39 °FPassing clouds.9 mph52%29.95 "Hg15 mi
9:00 PM39 °FPartly sunny.12 mph52%29.94 "Hg15 mi
7:00 PM43 °FPartly sunny.13 mph42%29.90 "Hg15 mi
6:00 PM43 °FPartly sunny.12 mph42%29.90 "Hg15 mi
5:00 PM43 °FPartly sunny.12 mph39%29.90 "Hg15 mi
Weather by CustomWeather, © 2015

See weather overviewHow to use our weather pages